Погода в Риччоне

Италия     43°59′39″N   12°38′57″E
темп.,
°C
ветер,
м/с
пор.,
м/с
влажн.,
%
обл.,
%
осадки,
мм/ч
давл.,
гПа
погр.,
м
25 июня, сб
сб2523:00+26ююз34610 0.0 101150
02:00+24юз685788 0.0 1011189
05:00+23юз3355100 0.0 1011117
08:00+24юз5561100 0.0 1013240
11:00+26св32530 0.0 1013442
14:00+25всв966514 0.0 1013582
17:00+25в77690 0.0 1012490
20:00+25вюв79730 0.0 1012235
26 июня, вс
вс2623:00+24ююв44730 0.0 1012109
02:00+24юз33510 0.0 101369
05:00+24з23540 0.0 101391
08:00+24ссз22525 0.0 1014186
11:00+23ссв53605 0.0 1015223
14:00+25всв45665 0.0 1014232
17:00+26в6766100 0.0 1013321
20:00+26вюв57695 0.0 1013178
27 июня, пн
пн2723:00+25юв45755 0.0 1013110
02:00+25ю2264100 0.0 101230
05:00+25юз22520 0.0 101322
08:00+25всв00520 0.0 101439
11:00+25св64530 0.0 1014358
14:00+25св567610 0.0 1013190
17:00+26всв687716 0.0 1012274
20:00+25в34810 0.0 1012136
28 июня, вт
вт2823:00+26зюз01740 0.0 101213
02:00+25сз357810 0.0 1012126
05:00+24сз34662 0.0 1013111
08:00+25з45635 0.0 1015185
11:00+25с4475100 0.0 1016204
14:00+25всв5474100 0.0 1014223
17:00+25ссз3381100 0.1 1012269
20:00+23юз667297 21.5 1014237
29 июня, ср
ср2923:00+23юз236692 0.2 1015101
02:00+24юв115997 0.2 1014104
05:00+22з567896 0.0 1013174
08:00+23сз67740 0.0 1013313
11:00+24ссз55670 0.0 1013339
14:00+24св43700 0.0 1012208
17:00+25всв34690 0.0 1011237
20:00+25вюв22710 0.0 1010109